| time (UTC) | temp C | wind direction | speed KPH | gust KPH | rain 1hr cm | rain 24hr cm | rain mn cm | humidity % | barometer mb |
| 20260510162326 | 24 | 107 | 3.2 | 24.1 | 0.00 | 0.10 | 0.03 | 57 | 1009.8 |
| 20260510161821 | 24 | 189 | 0.0 | 24.1 | 0.00 | 0.10 | 0.03 | 62 | 1009.7 |
| 20260510161332 | 24 | 65 | 4.8 | 19.3 | 0.00 | 0.10 | 0.03 | 58 | 1009.9 |
| 20260510160825 | 25 | 189 | 8.0 | 12.9 | 0.00 | 0.10 | 0.03 | 58 | 1010.0 |
| 20260510160329 | 25 | 192 | 0.0 | 12.9 | 0.00 | 0.10 | 0.03 | 58 | 1010.0 |
| 20260510155822 | 24 | 186 | 1.6 | 16.1 | 0.00 | 0.10 | 0.03 | 56 | 1010.1 |
| 20260510155333 | 24 | 188 | 3.2 | 9.7 | 0.00 | 0.10 | 0.03 | 56 | 1010.2 |
| 20260510154826 | 24 | 173 | 3.2 | 22.5 | 0.00 | 0.10 | 0.03 | 59 | 1010.0 |
| 20260510154337 | 23 | 243 | 3.2 | 22.5 | 0.00 | 0.10 | 0.03 | 58 | 1009.9 |
| 20260510153832 | 23 | 144 | 3.2 | 20.9 | 0.00 | 0.10 | 0.03 | 64 | 1010.2 |
| 20260510153325 | 23 | 232 | 4.8 | 16.1 | 0.00 | 0.10 | 0.03 | 64 | 1010.3 |
| 20260510152821 | 24 | 97 | 6.4 | 12.9 | 0.00 | 0.10 | 0.03 | 62 | 1010.3 |
| 20260510152332 | 24 | 82 | 1.6 | 12.9 | 0.00 | 0.10 | 0.03 | 63 | 1010.2 |
| 20260510151822 | 24 | 130 | 4.8 | 20.9 | 0.00 | 0.10 | 0.03 | 62 | 1010.3 |
| 20260510151333 | 24 | 135 | 4.8 | 20.9 | 0.00 | 0.10 | 0.03 | 61 | 1010.3 |
| 20260510150827 | 24 | 77 | 3.2 | 24.1 | 0.00 | 0.10 | 0.03 | 63 | 1010.3 |
| 20260510150320 | 23 | 40 | 4.8 | 24.1 | 0.00 | 0.10 | 0.03 | 63 | 1010.3 |
| 20260510145835 | 23 | 86 | 3.2 | 11.3 | 0.00 | 0.10 | 0.03 | 63 | 1010.5 |
| 20260510145328 | 24 | 89 | 4.8 | 11.3 | 0.00 | 0.10 | 0.03 | 61 | 1010.6 |
| 20260510144819 | 24 | 164 | 4.8 | 16.1 | 0.00 | 0.10 | 0.03 | 61 | 1010.5 |
| 20260510144332 | 24 | 199 | 3.2 | 12.9 | 0.00 | 0.10 | 0.03 | 63 | 1010.5 |
| 20260510143826 | 24 | 315 | 3.2 | 8.0 | 0.00 | 0.10 | 0.03 | 64 | 1010.6 |
| 20260510143337 | 24 | 72 | 1.6 | 14.5 | 0.00 | 0.10 | 0.03 | 64 | 1010.7 |
| 20260510142827 | 24 | 102 | 1.6 | 14.5 | 0.00 | 0.10 | 0.03 | 64 | 1010.8 |
| 20260510142338 | 24 | 146 | 1.6 | 9.7 | 0.00 | 0.10 | 0.03 | 63 | 1010.8 |
| 20260510141832 | 23 | 146 | 3.2 | 19.3 | 0.00 | 0.10 | 0.03 | 63 | 1010.9 |
| 20260510141323 | 23 | 186 | 8.0 | 20.9 | 0.00 | 0.10 | 0.03 | 62 | 1011.1 |
| 20260510140832 | 23 | 190 | 4.8 | 20.9 | 0.00 | 0.10 | 0.03 | 62 | 1011.0 |
| 20260510140326 | 23 | 215 | 6.4 | 20.9 | 0.00 | 0.10 | 0.03 | 62 | 1011.0 |
| 20260510135839 | 23 | 244 | 6.4 | 22.5 | 0.00 | 0.89 | 0.03 | 62 | 1011.1 |
| 20260510135330 | 24 | 122 | 11.3 | 22.5 | 0.00 | 0.89 | 0.03 | 60 | 1011.0 |
| 20260510134820 | 24 | 157 | 9.7 | 24.1 | 0.00 | 0.89 | 0.03 | 60 | 1011.1 |
| 20260510134332 | 24 | 174 | 3.2 | 20.9 | 0.00 | 0.89 | 0.03 | 59 | 1011.2 |
| 20260510133826 | 24 | 101 | 3.2 | 17.7 | 0.00 | 0.89 | 0.03 | 61 | 1011.1 |
| 20260510133336 | 24 | 136 | 6.4 | 16.1 | 0.00 | 0.89 | 0.03 | 59 | 1011.2 |
| 20260510132340 | 23 | 209 | 6.4 | 17.7 | 0.00 | 0.89 | 0.03 | 62 | 1011.4 |
| 20260510131828 | 23 | 234 | 3.2 | 17.7 | 0.00 | 0.89 | 0.03 | 63 | 1011.5 |
| 20260510131321 | 23 | 217 | 6.4 | 17.7 | 0.00 | 0.89 | 0.03 | 63 | 1011.6 |
| 20260510130832 | 23 | 105 | 4.8 | 20.9 | 0.00 | 0.89 | 0.03 | 62 | 1011.7 |
| 20260510130326 | 23 | 151 | 3.2 | 19.3 | 0.00 | 0.89 | 0.03 | 63 | 1011.7 |
| 20260510125822 | 23 | 182 | 4.8 | 19.3 | 0.00 | 1.19 | 0.03 | 65 | 1011.9 |
| 20260510125333 | 23 | 219 | 6.4 | 19.3 | 0.00 | 1.19 | 0.03 | 65 | 1012.1 |
| 20260510124826 | 23 | 180 | 8.0 | 19.3 | 0.00 | 1.19 | 0.03 | 65 | 1012.2 |
| 20260510124323 | 23 | 144 | 9.7 | 24.1 | 0.00 | 1.19 | 0.03 | 64 | 1012.2 |
| 20260510123832 | 23 | 138 | 9.7 | 24.1 | 0.00 | 1.19 | 0.03 | 62 | 1012.2 |
| 20260510123326 | 23 | 69 | 4.8 | 19.3 | 0.00 | 1.19 | 0.03 | 63 | 1012.2 |
| 20260510122839 | 23 | 64 | 6.4 | 20.9 | 0.00 | 1.19 | 0.03 | 60 | 1012.3 |
| 20260510122329 | 24 | 175 | 4.8 | 12.9 | 0.00 | 1.19 | 0.03 | 58 | 1012.2 |
| 20260510121827 | 24 | 64 | 3.2 | 16.1 | 0.00 | 1.19 | 0.03 | 60 | 1012.1 |
| 20260510121320 | 24 | 26 | 3.2 | 22.5 | 0.00 | 1.19 | 0.03 | 60 | 1012.2 |
| 20260510120831 | 24 | 111 | 8.0 | 22.5 | 0.00 | 1.19 | 0.03 | 57 | 1012.1 |
| 20260510120321 | 24 | 107 | 1.6 | 19.3 | 0.00 | 1.19 | 0.03 | 59 | 1012.1 |
| 20260510115832 | 24 | 73 | 4.8 | 19.3 | 0.00 | 3.81 | 0.03 | 58 | 1012.2 |
| 20260510115322 | 25 | 56 | 4.8 | 17.7 | 0.00 | 3.81 | 0.03 | 57 | 1012.1 |
| 20260510114813 | 25 | 76 | 3.2 | 17.7 | 0.00 | 3.81 | 0.03 | 56 | 1012.2 |
| 20260510114330 | 25 | 59 | 6.4 | 17.7 | 0.00 | 3.81 | 0.03 | 55 | 1012.2 |
| 20260510113824 | 25 | 76 | 4.8 | 12.9 | 0.00 | 3.81 | 0.03 | 53 | 1012.2 |
| 20260510113334 | 25 | 69 | 4.8 | 12.9 | 0.00 | 3.81 | 0.03 | 54 | 1012.3 |
| 20260510112828 | 25 | 30 | 1.6 | 11.3 | 0.00 | 3.81 | 0.03 | 53 | 1012.3 |
| 20260510112318 | 25 | 130 | 1.6 | 14.5 | 0.00 | 3.81 | 0.03 | 53 | 1012.4 |
| 20260510111832 | 25 | 67 | 3.2 | 14.5 | 0.00 | 3.81 | 0.03 | 54 | 1012.3 |
| 20260510111322 | 25 | 80 | 4.8 | 14.5 | 0.00 | 3.81 | 0.03 | 53 | 1012.4 |
| 20260510110832 | 25 | 67 | 1.6 | 8.0 | 0.00 | 3.81 | 0.03 | 54 | 1012.5 |
| 20260510110328 | 25 | 66 | 3.2 | 8.0 | 0.00 | 3.81 | 0.03 | 55 | 1012.6 |
| 20260510105827 | 25 | 67 | 1.6 | 9.7 | 0.00 | 7.70 | 0.03 | 59 | 1012.7 |
| 20260510105320 | 24 | 39 | 1.6 | 9.7 | 0.00 | 7.70 | 0.03 | 57 | 1012.9 |
| 20260510104833 | 24 | 62 | 3.2 | 11.3 | 0.00 | 7.70 | 0.03 | 58 | 1013.0 |
| 20260510104327 | 24 | 80 | 1.6 | 11.3 | 0.00 | 7.70 | 0.03 | 60 | 1013.1 |
| 20260510103837 | 24 | 80 | 1.6 | 12.9 | 0.00 | 7.70 | 0.03 | 59 | 1013.2 |
| 20260510102838 | 24 | 61 | 4.8 | 12.9 | 0.00 | 7.70 | 0.03 | 59 | 1013.3 |
| 20260510102328 | 24 | 58 | 3.2 | 11.3 | 0.00 | 7.70 | 0.03 | 57 | 1013.4 |
| 20260510101829 | 24 | 61 | 3.2 | 9.7 | 0.00 | 7.70 | 0.03 | 60 | 1013.3 |
| 20260510101326 | 23 | 61 | 1.6 | 14.5 | 0.00 | 7.70 | 0.03 | 58 | 1013.4 |
| 20260510100819 | 23 | 71 | 4.8 | 20.9 | 0.00 | 7.70 | 0.03 | 62 | 1013.4 |
| 20260510100322 | 23 | 75 | 8.0 | 20.9 | 0.00 | 7.70 | 0.03 | 60 | 1013.5 |
| 20260510095836 | 23 | 43 | 3.2 | 11.3 | 0.00 | 9.19 | 0.03 | 60 | 1013.5 |
| 20260510095327 | 23 | 5 | 4.8 | 14.5 | 0.00 | 9.19 | 0.03 | 60 | 1013.5 |
| 20260510094817 | 23 | 16 | 3.2 | 9.7 | 0.00 | 9.19 | 0.03 | 62 | 1013.7 |
| 20260510094331 | 23 | 16 | 4.8 | 11.3 | 0.00 | 9.19 | 0.03 | 60 | 1013.6 |
| 20260510093825 | 23 | 14 | 3.2 | 11.3 | 0.00 | 9.19 | 0.03 | 59 | 1013.8 |
| 20260510093322 | 23 | 26 | 4.8 | 9.7 | 0.00 | 9.19 | 0.03 | 59 | 1013.8 |
| 20260510092832 | 23 | 28 | 1.6 | 8.0 | 0.00 | 9.19 | 0.03 | 60 | 1013.8 |
| 20260510092323 | 23 | 10 | 3.2 | 14.5 | 0.00 | 9.19 | 0.03 | 61 | 1013.9 |
| 20260510091833 | 23 | 5 | 3.2 | 14.5 | 0.00 | 9.19 | 0.03 | 61 | 1013.8 |
| 20260510091331 | 23 | 360 | 3.2 | 12.9 | 0.00 | 9.19 | 0.03 | 58 | 1013.8 |
| 20260510090820 | 23 | 288 | 3.2 | 11.3 | 0.00 | 9.19 | 0.03 | 58 | 1013.9 |
| 20260510090331 | 23 | 208 | 3.2 | 8.0 | 0.00 | 9.19 | 0.03 | 59 | 1013.9 |
| 20260510085826 | 23 | 214 | 3.2 | 8.0 | 0.00 | 9.80 | 0.03 | 60 | 1013.9 |
| 20260510085336 | 23 | 214 | 1.6 | 8.0 | 0.00 | 9.80 | 0.03 | 60 | 1013.9 |
| 20260510084827 | 22 | 212 | 1.6 | 6.4 | 0.00 | 9.80 | 0.03 | 60 | 1013.9 |
| 20260510084337 | 22 | 209 | 0.0 | 6.4 | 0.00 | 9.80 | 0.03 | 59 | 1013.9 |
| 20260510083828 | 22 | 209 | 1.6 | 6.4 | 0.00 | 9.80 | 0.03 | 60 | 1013.8 |
| 20260510083321 | 21 | 209 | 0.0 | 4.8 | 0.00 | 9.80 | 0.03 | 63 | 1013.9 |
| 20260510082832 | 21 | 209 | 1.6 | 6.4 | 0.00 | 9.80 | 0.03 | 67 | 1013.9 |
| 20260510082322 | 21 | 209 | 3.2 | 6.4 | 0.00 | 9.80 | 0.03 | 69 | 1013.9 |
| 20260510081817 | 21 | 209 | 1.6 | 4.8 | 0.00 | 9.80 | 0.03 | 71 | 1014.0 |
| 20260510081327 | 20 | 209 | 1.6 | 4.8 | 0.00 | 9.80 | 0.03 | 72 | 1013.9 |
| 20260510080818 | 20 | 209 | 1.6 | 4.8 | 0.00 | 9.80 | 0.03 | 74 | 1013.9 |
| 20260510080332 | 19 | 209 | 0.0 | 3.2 | 0.00 | 9.80 | 0.03 | 74 | 1013.9 |
| 20260510075825 | 19 | 209 | 0.0 | 3.2 | 0.00 | 10.21 | 0.03 | 73 | 1014.1 |
| 20260510075336 | 18 | 210 | 0.0 | 3.2 | 0.00 | 10.21 | 0.03 | 75 | 1014.2 |
| 20260510074825 | 18 | 210 | 0.0 | 3.2 | 0.00 | 10.21 | 0.03 | 77 | 1014.2 |
| 20260510074319 | 17 | 210 | 0.0 | 3.2 | 0.00 | 10.21 | 0.03 | 80 | 1014.2 |
| 20260510073816 | 17 | 210 | 0.0 | 1.6 | 0.00 | 10.21 | 0.03 | 81 | 1014.2 |
| 20260510073331 | 17 | 210 | 0.0 | 3.2 | 0.00 | 10.21 | 0.03 | 82 | 1014.3 |
| 20260510072822 | 16 | 210 | 0.0 | 1.6 | 0.00 | 10.21 | 0.03 | 82 | 1014.3 |
| 20260510072332 | 16 | 210 | 0.0 | 1.6 | 0.00 | 10.21 | 0.03 | 83 | 1014.3 |
| 20260510071826 | 16 | 210 | 0.0 | 0.0 | 0.00 | 10.21 | 0.03 | 84 | 1014.3 |
| 20260510071319 | 16 | 210 | 0.0 | 0.0 | 0.00 | 10.21 | 0.03 | 84 | 1014.3 |
| 20260510070830 | 16 | 210 | 0.0 | 0.0 | 0.00 | 10.21 | 0.03 | 84 | 1014.2 |
| 20260510070320 | 15 | 210 | 0.0 | 0.0 | 0.00 | 10.21 | 0.03 | 84 | 1014.1 |
| 20260510065831 | 15 | 210 | 0.0 | 0.0 | 0.00 | 12.60 | 0.03 | 84 | 1014.1 |
| 20260510065328 | 15 | 210 | 0.0 | 3.2 | 0.00 | 12.60 | 0.03 | 84 | 1014.0 |
| 20260510064825 | 14 | 210 | 1.6 | 3.2 | 0.00 | 12.60 | 0.03 | 84 | 1014.0 |
| 20260510064336 | 14 | 210 | 0.0 | 0.0 | 0.00 | 12.60 | 0.03 | 84 | 1013.9 |
| 20260510063826 | 14 | 210 | 0.0 | 0.0 | 0.00 | 12.60 | 0.03 | 84 | 1013.9 |
| 20260510063337 | 13 | 210 | 0.0 | 0.0 | 0.00 | 12.60 | 0.03 | 84 | 1013.9 |
| 20260510062829 | 13 | 210 | 0.0 | 0.0 | 0.00 | 12.60 | 0.03 | 84 | 1013.8 |
| 20260510062323 | 13 | 210 | 0.0 | 0.0 | 0.00 | 12.60 | 0.03 | 84 | 1013.8 |
| 20260510061836 | 13 | 210 | 0.0 | 0.0 | 0.00 | 12.60 | 0.03 | 84 | 1013.8 |
| 20260510061331 | 13 | 210 | 0.0 | 0.0 | 0.00 | 12.60 | 0.03 | 84 | 1013.8 |
| 20260510060821 | 13 | 210 | 0.0 | 0.0 | 0.00 | 12.60 | 0.03 | 84 | 1013.7 |
| 20260510060332 | 13 | 210 | 0.0 | 0.0 | 0.00 | 12.60 | 0.03 | 84 | 1013.7 |
| 20260510055826 | 13 | 210 | 0.0 | 0.0 | 0.00 | 12.60 | 0.03 | 84 | 1013.7 |
| 20260510055336 | 13 | 210 | 0.0 | 0.0 | 0.00 | 12.60 | 0.03 | 84 | 1013.7 |
| 20260510054827 | 13 | 210 | 0.0 | 0.0 | 0.00 | 12.60 | 0.03 | 84 | 1013.6 |
| 20260510054340 | 12 | 210 | 0.0 | 0.0 | 0.00 | 12.60 | 0.03 | 84 | 1013.6 |
| 20260510053831 | 12 | 210 | 0.0 | 0.0 | 0.00 | 12.60 | 0.03 | 84 | 1013.5 |
| 20260510053325 | 12 | 210 | 0.0 | 0.0 | 0.00 | 12.60 | 0.03 | 84 | 1013.5 |
| 20260510052819 | 12 | 210 | 0.0 | 3.2 | 0.00 | 12.60 | 0.03 | 84 | 1013.4 |
| 20260510052332 | 12 | 210 | 0.0 | 3.2 | 0.00 | 12.60 | 0.03 | 84 | 1013.4 |
| 20260510051825 | 12 | 210 | 0.0 | 3.2 | 0.00 | 12.60 | 0.03 | 84 | 1013.4 |
| 20260510051335 | 12 | 210 | 0.0 | 1.6 | 0.00 | 12.60 | 0.03 | 84 | 1013.4 |
| 20260510050830 | 12 | 210 | 0.0 | 1.6 | 0.00 | 12.60 | 0.03 | 84 | 1013.4 |
| 20260510050321 | 12 | 210 | 0.0 | 0.0 | 0.00 | 12.60 | 0.03 | 84 | 1013.3 |
| 20260510045831 | 12 | 210 | 0.0 | 0.0 | 0.00 | 12.60 | 0.03 | 85 | 1013.2 |
| 20260510045325 | 12 | 210 | 0.0 | 0.0 | 0.00 | 12.60 | 0.03 | 85 | 1013.3 |
| 20260510044815 | 12 | 210 | 0.0 | 1.6 | 0.00 | 12.60 | 0.03 | 84 | 1013.2 |
| 20260510044332 | 12 | 210 | 0.0 | 1.6 | 0.00 | 12.60 | 0.03 | 84 | 1013.2 |
| 20260510043825 | 12 | 210 | 0.0 | 1.6 | 0.00 | 12.60 | 0.03 | 84 | 1013.1 |
| 20260510043336 | 12 | 210 | 0.0 | 0.0 | 0.00 | 12.60 | 0.03 | 84 | 1013.2 |
| 20260510042830 | 12 | 210 | 0.0 | 0.0 | 0.00 | 12.60 | 0.03 | 84 | 1013.1 |
| 20260510042322 | 12 | 210 | 0.0 | 1.6 | 0.00 | 12.60 | 0.03 | 85 | 1013.2 |
| 20260510041820 | 12 | 210 | 0.0 | 1.6 | 0.00 | 12.60 | 0.03 | 84 | 1013.2 |
| 20260510041333 | 12 | 210 | 0.0 | 0.0 | 0.00 | 12.60 | 0.03 | 84 | 1013.2 |
| 20260510040824 | 12 | 210 | 0.0 | 0.0 | 0.00 | 12.60 | 0.03 | 84 | 1013.1 |
| 20260510040325 | 12 | 210 | 0.0 | 1.6 | 0.00 | 12.60 | 0.03 | 84 | 1013.1 |
| 20260510035836 | 12 | 210 | 0.0 | 3.2 | 0.00 | 12.60 | 0.03 | 84 | 1013.1 |
| 20260510035326 | 12 | 210 | 0.0 | 3.2 | 0.00 | 12.60 | 0.03 | 84 | 1013.1 |
| 20260510034837 | 12 | 210 | 0.0 | 0.0 | 0.00 | 12.60 | 0.03 | 84 | 1013.2 |
| 20260510034327 | 12 | 210 | 0.0 | 0.0 | 0.00 | 12.60 | 0.03 | 85 | 1013.1 |
| 20260510033838 | 12 | 210 | 0.0 | 0.0 | 0.00 | 12.60 | 0.03 | 85 | 1013.0 |
| 20260510033333 | 12 | 210 | 0.0 | 0.0 | 0.00 | 12.60 | 0.03 | 85 | 1013.0 |
| 20260510032823 | 12 | 210 | 0.0 | 0.0 | 0.00 | 12.60 | 0.03 | 84 | 1012.9 |
| 20260510032334 | 12 | 210 | 0.0 | 0.0 | 0.00 | 12.60 | 0.03 | 84 | 1012.9 |
| 20260510031831 | 12 | 210 | 0.0 | 0.0 | 0.00 | 12.60 | 0.03 | 84 | 1012.9 |
| 20260510031321 | 12 | 210 | 0.0 | 3.2 | 0.00 | 12.60 | 0.03 | 84 | 1012.9 |
| 20260510030831 | 12 | 210 | 1.6 | 3.2 | 0.00 | 12.60 | 0.03 | 84 | 1012.8 |
| 20260510030326 | 12 | 210 | 1.6 | 6.4 | 0.00 | 12.60 | 0.03 | 85 | 1012.9 |
| 20260510025831 | 12 | 210 | 1.6 | 6.4 | 0.00 | 12.60 | 0.03 | 85 | 1012.9 |
| 20260510025326 | 12 | 210 | 0.0 | 0.0 | 0.00 | 12.60 | 0.03 | 85 | 1013.0 |
| 20260510024836 | 12 | 210 | 0.0 | 0.0 | 0.00 | 12.60 | 0.03 | 84 | 1013.0 |
| 20260510024327 | 12 | 210 | 0.0 | 0.0 | 0.00 | 12.60 | 0.03 | 84 | 1013.0 |
| 20260510023820 | 12 | 210 | 0.0 | 3.2 | 0.00 | 12.60 | 0.03 | 84 | 1013.0 |
| 20260510023333 | 12 | 210 | 0.0 | 3.2 | 0.00 | 12.60 | 0.03 | 84 | 1013.0 |
| 20260510022827 | 12 | 210 | 1.6 | 3.2 | 0.10 | 12.60 | 0.03 | 84 | 1013.0 |
| 20260510022341 | 12 | 210 | 0.0 | 3.2 | 0.10 | 12.60 | 0.03 | 84 | 1013.0 |
| 20260510021828 | 13 | 210 | 0.0 | 3.2 | 0.10 | 12.60 | 0.03 | 85 | 1013.0 |
| 20260510021326 | 13 | 210 | 0.0 | 3.2 | 0.10 | 12.60 | 0.03 | 84 | 1013.0 |
| 20260510020840 | 13 | 210 | 0.0 | 3.2 | 0.10 | 12.60 | 0.03 | 84 | 1013.1 |
| 20260510020346 | 13 | 210 | 0.0 | 0.0 | 0.10 | 12.60 | 0.03 | 84 | 1013.0 |
| 20260510015836 | 13 | 210 | 0.0 | 1.6 | 0.10 | 12.60 | 0.03 | 84 | 1013.1 |
| 20260510015327 | 13 | 210 | 0.0 | 4.8 | 0.10 | 12.60 | 0.03 | 84 | 1012.9 |
| 20260510014840 | 13 | 210 | 1.6 | 4.8 | 0.10 | 12.60 | 0.03 | 84 | 1012.9 |
| 20260510014334 | 13 | 210 | 0.0 | 0.0 | 0.10 | 12.60 | 0.03 | 84 | 1013.1 |
| 20260510013844 | 13 | 210 | 0.0 | 0.0 | 0.10 | 12.60 | 0.03 | 84 | 1013.0 |
| 20260510013335 | 13 | 210 | 0.0 | 1.6 | 0.10 | 12.60 | 0.03 | 84 | 1013.1 |
| 20260510012832 | 13 | 210 | 0.0 | 4.8 | 0.00 | 12.50 | 0.00 | 84 | 1013.1 |
| 20260510012326 | 13 | 210 | 0.0 | 6.4 | 0.00 | 12.50 | 0.00 | 84 | 1013.1 |
| 20260510011837 | 13 | 210 | 1.6 | 6.4 | 0.00 | 12.50 | 0.00 | 84 | 1013.0 |
| 20260510011327 | 13 | 210 | 1.6 | 4.8 | 0.00 | 12.50 | 0.00 | 84 | 1013.1 |
| 20260510010838 | 13 | 210 | 1.6 | 6.4 | 0.00 | 12.50 | 0.00 | 84 | 1013.1 |
| 20260510010328 | 13 | 210 | 1.6 | 6.4 | 0.00 | 12.50 | 0.00 | 84 | 1013.2 |
| 20260510005822 | 13 | 210 | 1.6 | 4.8 | 0.00 | 12.50 | 0.00 | 84 | 1013.1 |
| 20260510005335 | 13 | 210 | 1.6 | 4.8 | 0.00 | 12.50 | 0.00 | 84 | 1013.2 |
| 20260510004829 | 13 | 210 | 1.6 | 4.8 | 0.00 | 12.50 | 0.00 | 84 | 1013.3 |
| 20260510004326 | 13 | 210 | 0.0 | 4.8 | 0.00 | 12.50 | 0.00 | 84 | 1013.4 |
| 20260510003839 | 13 | 210 | 0.0 | 4.8 | 0.00 | 12.50 | 0.00 | 84 | 1013.4 |
| 20260510003330 | 13 | 210 | 1.6 | 4.8 | 0.00 | 12.50 | 0.00 | 84 | 1013.5 |
| 20260510002826 | 13 | 210 | 0.0 | 1.6 | 0.00 | 12.50 | 0.00 | 84 | 1013.6 |
| 20260510002337 | 13 | 210 | 0.0 | 1.6 | 0.00 | 12.50 | 0.00 | 84 | 1013.7 |
| 20260510001827 | 14 | 210 | 0.0 | 4.8 | 0.00 | 12.50 | 0.00 | 84 | 1013.7 |
| 20260510001338 | 14 | 210 | 0.0 | 4.8 | 0.00 | 12.50 | 0.00 | 84 | 1013.7 |
| 20260510000835 | 14 | 210 | 0.0 | 1.6 | 0.00 | 12.50 | 0.00 | 84 | 1013.7 |
| 20260510000348 | 14 | 210 | 0.0 | 1.6 | 0.00 | 12.50 | 0.00 | 84 | 1013.8 |
| 20260509235836 | 14 | 210 | 0.0 | 1.6 | 0.00 | 12.50 | 0.00 | 84 | 1013.8 |
| 20260509235327 | 14 | 210 | 0.0 | 1.6 | 0.00 | 12.50 | 0.00 | 84 | 1013.9 |
| 20260509234839 | 14 | 210 | 0.0 | 0.0 | 0.00 | 12.50 | 0.00 | 84 | 1013.9 |
| 20260509234333 | 14 | 210 | 0.0 | 0.0 | 0.00 | 12.50 | 0.00 | 84 | 1013.9 |
| 20260509233844 | 15 | 210 | 0.0 | 0.0 | 0.00 | 12.50 | 0.00 | 84 | 1013.9 |
| 20260509233334 | 15 | 210 | 0.0 | 3.2 | 0.00 | 12.50 | 0.00 | 84 | 1014.0 |
| 20260509232832 | 15 | 210 | 0.0 | 1.6 | 0.00 | 12.50 | 0.00 | 84 | 1013.9 |
| 20260509232342 | 15 | 210 | 0.0 | 1.6 | 0.00 | 12.50 | 0.00 | 84 | 1014.0 |
| 20260509231833 | 15 | 210 | 0.0 | 0.0 | 0.00 | 12.50 | 0.00 | 84 | 1013.9 |
| 20260509231325 | 15 | 210 | 0.0 | 0.0 | 0.00 | 12.50 | 0.00 | 84 | 1013.9 |
| 20260509230836 | 15 | 210 | 0.0 | 0.0 | 0.00 | 12.50 | 0.00 | 84 | 1014.0 |
| 20260509230330 | 15 | 210 | 0.0 | 0.0 | 0.00 | 12.50 | 0.00 | 84 | 1013.9 |
| 20260509225840 | 15 | 210 | 0.0 | 1.6 | 0.00 | 12.50 | 0.00 | 84 | 1013.9 |
| 20260509225331 | 15 | 210 | 0.0 | 3.2 | 0.00 | 12.50 | 0.00 | 84 | 1013.9 |
| 20260509224828 | 15 | 210 | 1.6 | 3.2 | 0.00 | 12.50 | 0.00 | 84 | 1013.8 |
| 20260509224325 | 15 | 210 | 0.0 | 8.0 | 0.00 | 12.50 | 0.00 | 84 | 1013.9 |
| 20260509223835 | 15 | 210 | 0.0 | 9.7 | 0.00 | 12.50 | 0.00 | 84 | 1013.8 |
| 20260509223326 | 14 | 227 | 4.8 | 9.7 | 0.00 | 12.50 | 0.00 | 84 | 1013.8 |
| 20260509222836 | 14 | 360 | 0.0 | 3.2 | 0.00 | 12.50 | 0.00 | 84 | 1013.8 |
| 20260509222329 | 14 | 360 | 0.0 | 4.8 | 0.00 | 12.50 | 0.00 | 84 | 1013.8 |
| 20260509221826 | 14 | 360 | 0.0 | 3.2 | 0.00 | 12.50 | 0.00 | 84 | 1013.8 |
| 20260509221338 | 14 | 360 | 1.6 | 4.8 | 0.00 | 12.50 | 0.00 | 84 | 1013.8 |
| 20260509220836 | 14 | 360 | 1.6 | 4.8 | 0.00 | 12.50 | 0.00 | 84 | 1013.8 |
| 20260509220341 | 14 | 360 | 1.6 | 4.8 | 0.00 | 12.50 | 0.00 | 84 | 1013.9 |
| 20260509215832 | 15 | 360 | 0.0 | 1.6 | 0.00 | 12.50 | 2.49 | 84 | 1014.0 |
| 20260509215342 | 15 | 360 | 0.0 | 0.0 | 0.00 | 12.50 | 2.49 | 84 | 1014.1 |
| 20260509214835 | 15 | 360 | 0.0 | 3.2 | 0.00 | 12.50 | 2.49 | 84 | 1014.1 |
| 20260509214328 | 15 | 360 | 1.6 | 3.2 | 0.00 | 12.50 | 2.49 | 84 | 1014.0 |
| 20260509213842 | 15 | 360 | 1.6 | 4.8 | 0.00 | 12.50 | 2.49 | 84 | 1014.0 |
| 20260509213334 | 15 | 360 | 1.6 | 4.8 | 0.00 | 12.50 | 2.49 | 84 | 1014.0 |
| 20260509212829 | 15 | 360 | 0.0 | 3.2 | 0.00 | 12.50 | 2.49 | 84 | 1014.0 |
| 20260509212342 | 15 | 360 | 0.0 | 3.2 | 0.00 | 12.50 | 2.49 | 84 | 1014.0 |
| 20260509211833 | 15 | 360 | 1.6 | 3.2 | 0.00 | 12.50 | 2.49 | 84 | 1014.0 |
| 20260509211326 | 15 | 360 | 0.0 | 4.8 | 0.00 | 12.50 | 2.49 | 84 | 1014.0 |
| 20260509210837 | 15 | 360 | 0.0 | 4.8 | 0.00 | 12.50 | 2.49 | 84 | 1014.0 |
| 20260509210328 | 15 | 5 | 1.6 | 4.8 | 0.00 | 12.50 | 2.49 | 84 | 1013.9 |
| 20260509205840 | 15 | 5 | 0.0 | 0.0 | 0.00 | 12.50 | 2.49 | 84 | 1013.8 |
| 20260509205330 | 15 | 5 | 0.0 | 0.0 | 0.00 | 12.50 | 2.49 | 86 | 1013.7 |
| 20260509204830 | 15 | 5 | 0.0 | 0.0 | 0.00 | 12.50 | 2.49 | 84 | 1013.6 |
| 20260509204321 | 15 | 5 | 0.0 | 1.6 | 0.00 | 12.50 | 2.49 | 84 | 1013.7 |
| 20260509203834 | 15 | 5 | 0.0 | 1.6 | 0.00 | 12.50 | 2.49 | 84 | 1013.6 |
| 20260509203328 | 15 | 5 | 0.0 | 0.0 | 0.00 | 12.50 | 2.49 | 84 | 1013.6 |
| 20260509202838 | 15 | 5 | 0.0 | 0.0 | 0.00 | 12.50 | 2.49 | 84 | 1013.5 |
| 20260509202329 | 15 | 5 | 0.0 | 0.0 | 0.00 | 12.50 | 2.49 | 84 | 1013.4 |
| 20260509201822 | 15 | 5 | 0.0 | 3.2 | 0.00 | 12.50 | 2.49 | 84 | 1013.5 |
| 20260509201332 | 15 | 5 | 0.0 | 4.8 | 0.00 | 12.50 | 2.49 | 84 | 1013.3 |
| 20260509200827 | 15 | 5 | 1.6 | 4.8 | 0.00 | 12.50 | 2.49 | 84 | 1013.1 |
| 20260509200320 | 15 | 5 | 0.0 | 1.6 | 0.00 | 12.50 | 2.49 | 84 | 1013.1 |
| 20260509195830 | 15 | 5 | 0.0 | 3.2 | 0.00 | 12.50 | 2.49 | 83 | 1013.0 |
| 20260509195326 | 15 | 5 | 0.0 | 4.8 | 0.00 | 12.50 | 2.49 | 83 | 1012.9 |
| 20260509194820 | 16 | 5 | 0.0 | 4.8 | 0.00 | 12.50 | 2.49 | 83 | 1012.7 |
| 20260509194332 | 16 | 5 | 0.0 | 1.6 | 0.00 | 12.50 | 2.49 | 83 | 1012.7 |
| 20260509193826 | 16 | 5 | 0.0 | 4.8 | 0.00 | 12.50 | 2.49 | 83 | 1012.6 |
| 20260509193327 | 16 | 5 | 1.6 | 4.8 | 0.00 | 12.50 | 2.49 | 83 | 1012.5 |
| 20260509192820 | 16 | 5 | 1.6 | 3.2 | 0.00 | 12.50 | 2.49 | 83 | 1012.4 |
| 20260509192330 | 16 | 5 | 1.6 | 3.2 | 0.00 | 12.50 | 2.49 | 83 | 1012.5 |
| 20260509191821 | 16 | 5 | 0.0 | 0.0 | 0.00 | 12.50 | 2.49 | 83 | 1012.6 |
| 20260509191331 | 16 | 5 | 0.0 | 0.0 | 0.00 | 12.50 | 2.49 | 83 | 1012.5 |
| 20260509190821 | 16 | 5 | 0.0 | 0.0 | 0.00 | 12.50 | 2.49 | 83 | 1012.5 |
| 20260509190332 | 16 | 5 | 0.0 | 0.0 | 0.00 | 12.50 | 2.49 | 83 | 1012.4 |
| 20260509185825 | 16 | 5 | 0.0 | 0.0 | 0.00 | 12.50 | 2.49 | 83 | 1012.5 |
| 20260509185323 | 16 | 5 | 0.0 | 0.0 | 0.00 | 12.50 | 2.49 | 83 | 1012.3 |
| 20260509184833 | 16 | 5 | 0.0 | 0.0 | 0.00 | 12.50 | 2.49 | 82 | 1012.3 |
| 20260509184323 | 16 | 5 | 0.0 | 0.0 | 0.00 | 12.50 | 2.49 | 82 | 1012.3 |
| 20260509183833 | 16 | 5 | 0.0 | 1.6 | 0.00 | 12.50 | 2.49 | 82 | 1012.2 |
| 20260509183327 | 17 | 5 | 0.0 | 1.6 | 0.00 | 12.50 | 2.49 | 82 | 1012.2 |
| 20260509182838 | 17 | 5 | 0.0 | 0.0 | 0.00 | 12.50 | 2.49 | 82 | 1012.1 |
| 20260509182328 | 17 | 5 | 0.0 | 0.0 | 0.00 | 12.50 | 2.49 | 81 | 1011.9 |
| 20260509181838 | 17 | 5 | 0.0 | 0.0 | 0.00 | 12.50 | 2.49 | 81 | 1011.9 |
| 20260509181329 | 17 | 5 | 0.0 | 3.2 | 0.00 | 12.50 | 2.49 | 81 | 1011.9 |
| 20260509180826 | 17 | 5 | 0.0 | 4.8 | 0.00 | 12.50 | 2.49 | 81 | 1011.8 |
| 20260509180319 | 17 | 5 | 0.0 | 6.4 | 0.00 | 12.50 | 2.49 | 81 | 1011.9 |
| 20260509175833 | 17 | 5 | 3.2 | 6.4 | 0.00 | 12.50 | 2.49 | 80 | 1011.8 |
| 20260509175326 | 17 | 5 | 1.6 | 6.4 | 0.00 | 12.50 | 2.49 | 80 | 1011.8 |
| 20260509174836 | 17 | 5 | 0.0 | 6.4 | 0.00 | 12.50 | 2.49 | 80 | 1011.7 |
| 20260509174326 | 17 | 5 | 0.0 | 6.4 | 0.00 | 12.50 | 2.49 | 80 | 1011.6 |
| 20260509173839 | 18 | 5 | 1.6 | 6.4 | 0.00 | 12.50 | 2.49 | 80 | 1011.7 |
| 20260509173330 | 18 | 5 | 1.6 | 6.4 | 0.00 | 12.50 | 2.49 | 79 | 1011.6 |
| 20260509172830 | 18 | 5 | 1.6 | 4.8 | 0.00 | 12.50 | 2.49 | 79 | 1011.6 |
| 20260509172323 | 18 | 5 | 0.0 | 8.0 | 0.00 | 12.50 | 2.49 | 80 | 1011.5 |
| 20260509171836 | 18 | 5 | 0.0 | 8.0 | 0.00 | 12.50 | 2.49 | 80 | 1011.4 |
| 20260509171330 | 18 | 5 | 0.0 | 4.8 | 0.00 | 12.50 | 2.49 | 80 | 1011.6 |
| 20260509170820 | 18 | 5 | 0.0 | 8.0 | 0.00 | 12.50 | 2.49 | 80 | 1011.5 |
| 20260509170331 | 18 | 5 | 1.6 | 11.3 | 0.00 | 12.50 | 2.49 | 79 | 1011.6 |
| 20260509165322 | 18 | 355 | 1.6 | 6.4 | 0.00 | 12.50 | 2.49 | 80 | 1011.4 |
| 20260509164832 | 18 | 355 | 1.6 | 9.7 | 0.00 | 12.50 | 2.49 | 79 | 1011.4 |
| 20260509164329 | 18 | 355 | 3.2 | 9.7 | 0.00 | 12.50 | 2.49 | 80 | 1011.3 |
| 20260509163822 | 18 | 360 | 1.6 | 8.0 | 0.00 | 12.50 | 2.49 | 79 | 1011.3 |
| 20260509163332 | 18 | 360 | 0.0 | 12.9 | 0.00 | 12.50 | 2.49 | 79 | 1011.2 |
| 20260509162823 | 18 | 355 | 1.6 | 12.9 | 0.00 | 12.50 | 2.49 | 78 | 1011.3 |